Regional Weather Roundup
Issued by NWS

Home | Current Version | Previous Version | Text Only | Print | Product List | Glossary On
Versions: 1 2 3 4 5 6 7 8 9 10 11 12 13 14 15 16 17 18 19 20 21 22 23 24 25 26 27 28 29 30 31 32 33 34 35 36 37 38 39 40 41 42 43 44 45 46 47 48 49 50
000
ASUS43 KOAX 271010
RWRNE

WEATHER ROUNDUP FOR NEBRASKA
NATIONAL WEATHER SERVICE OMAHA NE
500 AM CDT MON APR 27 2015

NOTES: SATELLITE DATA IS BEING USED TO AUGMENT CLOUD COVER ABOVE
       12000 FEET.
       "FAIR" INDICATES FEW OR NO CLOUDS BELOW 12,000 FEET WITH NO
       SIGNIFICANT WEATHER AND/OR OBSTRUCTIONS TO VISIBILITY.

  * THESE STATIONS DO NOT REPORT WEATHER SUCH AS RAIN...SNOW OR FOG.

NEZ001>004-019>022-054>056-271100-
NEBRASKA PANHANDLE

CITY           SKY/WX    TMP DP  RH WIND       PRES   REMARKS
SCOTTSBLUFF    CLOUDY    44  32  62 N5        30.17R
ALLIANCE       CLOUDY    43  40  89 CALM      30.16R
CHADRON        CLOUDY    43  40  89 CALM      30.17S
KIMBALL        CLOUDY    40  40  99 CALM      30.14R FOG
SIDNEY         CLOUDY    42  40  92 N5        30.16R FOG
$$

NEZ057>060-069>072-079>082-271100-
SOUTHWEST NEBRASKA

CITY           SKY/WX    TMP DP  RH WIND       PRES   REMARKS
IMPERIAL       CLOUDY    46  41  82 NE7       30.14R
LEXINGTON      CLEAR     34  32  94 NW3       30.13S FOG
MCCOOK         PTCLDY    41  37  86 NE6       30.12R
OGALLALA       CLOUDY    46  43  88 N6        30.15S
$$

NEZ005>010-023>029-035>040-094-271100-
NORTH CENTRAL NEBRASKA

CITY           SKY/WX    TMP DP  RH WIND       PRES   REMARKS
VALENTINE      CLEAR     32  29  88 W6        30.17R WCI  26
AINSWORTH      CLEAR     36  31  82 W3        30.16S
BROKEN BOW     PTCLDY    33  30  88 CALM      30.15R
O`NEILL        CLEAR     37  32  84 CALM      30.16R
ORD            PTCLDY    35  32  88 N6        30.15R WCI  30
THEDFORD       CLEAR     35  34  96 W5        30.17S FOG     WCI  31
$$

NEZ041-046>049-061>064-073>077-083>087-271100-
SOUTH CENTRAL NEBRASKA

CITY           SKY/WX    TMP DP  RH WIND       PRES   REMARKS
GRAND ISLAND   CLEAR     38  34  85 N5        30.15R WCI  34
AURORA         CLEAR     38  35  90 N7        30.15R WCI  33
HASTINGS       CLEAR     38  33  82 NE5       30.13R WCI  34
HEBRON         PTCLDY    37  34  90 CALM      30.13R
HOLDREGE       PTCLDY    36  33  89 N6        30.13R WCI  31
KEARNEY *      CLEAR     37  32  81 NW6       30.14R WCI  33
YORK           CLEAR     37  34  87 N6        30.14R WCI  33
$$

NEZ011>018-030>034-042>045-271100-
NORTHEAST NEBRASKA

CITY           SKY/WX    TMP DP  RH WIND       PRES   REMARKS
NORFOLK        MOCLDY    37  32  82 CALM      30.16R
ALBION         MOCLDY    33  31  91 CALM      30.16R
BLAIR          PTCLDY    42  33  70 N5        30.14R
COLUMBUS *     PTCLDY    41  30  65 N3        30.16R
FREMONT        PTCLDY    38  36  91 W3        30.16R
TEKAMAH        PTCLDY    39  34  82 N9        30.16R WCI  33
WAYNE          PTCLDY    33  29  85 CALM      30.17R
$$

NEZ050>053-065>068-078-088>093-271100-
SOUTHEAST NEBRASKA

CITY           SKY/WX    TMP DP  RH WIND       PRES   REMARKS
LINCOLN        CLEAR     35  31  85 N6        30.15R WCI  30
OMAHA EPPLEY   PTCLDY    39  35  86 NW6       30.15R WCI  35
BEATRICE       PTCLDY    38  33  82 NE5       30.12R WCI  34
FALLS CITY     PTCLDY    42  32  67 E5        30.11R
NEBRASKA CITY  CLEAR     41  30  64 N6        30.12S
PLATTSMOUTH    CLEAR     40  32  73 N3        30.14R
$$

NEZ044-045-051>053-067-271100-
OMAHA AREA

CITY           SKY/WX    TMP DP  RH WIND       PRES   REMARKS
OMAHA EPPLEY   PTCLDY    39  35  86 NW6       30.15R WCI  35
BLAIR          PTCLDY    42  33  70 N5        30.14R
FREMONT        PTCLDY    38  36  91 W3        30.16R
MILLARD        PTCLDY    40  37  88 CALM      30.15R
OFFUTT AFB     PTCLDY    35  32  89 W3        30.14R
PLATTSMOUTH    CLEAR     40  32  73 N3        30.14R
WAHOO          FAIR      39  34  81 NW7       30.15R WCI  34
$$


USA.gov is the U.S. government's official web portal to all federal, state and local government web resources and services.